Résultats de la compétition "Demi Finale Nord Est" du 15-06-2008 organisée par le club 8809
     
  Télécharger le fichier CSV.  
     
     

 Circuit "D"

Licence Nom Prénom Temps CN
précédent
Score sur
la course
Différence
2482COCHEYElodie1:20:4245644372-192
14648DIDOUSophie1:22:2249354283-652
2470MOUCHETTESabrina1:24:3933264168+842
13243MACABIAUEmilia1:24:5041224159+37
2892MOULIERECamille1:25:0345524148-404
720CLOEZVeronique1:29:3541513938-213
5463DENAIXOriane1:29:5642413923-318
8445FINASCeline1:31:4742993844-455
10527LEMERCIERCeline1:32:3438743811-63
745TINCHANTEstelle1:34:3546003730-870
9265BASTIENAmelie1:35:0932613708+447
14582LAZARDTiphaine1:45:3840523340-712
19394REFFETFanny1:46:3328763311+435
632DUBROCAChristele1:49:3138263221-605
12526STAUFFEREmmanuelle1:51:0531893176-13
17309BESTELFlorence1:53:0230453121+76
19675ROBERTVirginie1:54:42N/A3076N/A
18931MAUVILLYKarine1:57:5424002992+592
13688FRANCOISAline1:59:3134812952-529
12337LAUTISSIERLaure2:05:2331672814-353
13242SCHOULLERCoralie2:06:2825572790+233
14576GAFFURIA-Laure2:08:1829362750-186
18575STENBACKAgnès2:09:4932322718-514
9870LE-GOALLECAnaïs2:10:4340122699-1313
13833TRIMAILLEIsabelle2:16:0330892593-496
4073TARDYNatacha2:18:1334372552-885
10903RAVENELManon2:18:1936712551-1120
13061STEINVirginie2:18:3134572547-910
17899DEPERSINIsabelle2:20:3528732510-363
17625MERCIERSylvie2:20:5622542503+249
912LOUVETEloise2:35:1332172273-944
14227DESRUMAUXMarieN/A43960-4396
3831MORELMathildeN/AN/A0N/A
2375MAKOVICKAEdwigeN/A33190-3319
4012VENONMarionN/AN/A0N/A

  Indice de confiance du circuit (moyenne des différences entre CN et score sur la course des 3 à 10 premiers) : 156






 Retour